Theta_e
325 325 325 325 328 328 327 328 327 327 330 331 333 334 331 331 331 331 331 326 327 328 329 328 328 328 328 327 326 323 320 319 318 317 318 323 325 323 322 322 323 330 331
322 321 323 321 323 326 324 326 327 327 324 322 327 330 330 331 331 331 331 329 327 328 331 332 332 333 333 330 331 328 325 321 319 318 317 317 318 323 325 323 322 322 327
322 322 321 315 313 321 319 323 323 325 325 322 321 325 327 328 329 329 330 330 329 329 328 327 328 328 328 332 332 330 329 327 324 321 318 319 318 317 317 323 325 324 322
319 320 321 319 315 316 316 316 321 322 321 321 321 320 322 324 326 326 326 327 329 328 329 328 328 328 327 327 330 329 328 329 329 327 323 320 318 318 317 317 317 322 326
314 317 319 317 318 316 315 314 313 318 318 315 316 318 318 319 322 322 323 325 326 326 325 327 327 326 327 328 328 329 329 327 328 328 328 326 324 322 321 320 319 317 317
311 313 315 315 312 311 313 314 309 310 312 316 314 309 311 313 317 318 318 318 321 323 323 324 327 326 326 326 327 327 328 327 327 327 327 328 329 328 327 326 324 323 324
309 310 311 311 309 308 309 310 311 309 308 311 311 308 308 306 306 314 314 316 315 318 320 326 325 325 326 326 325 324 326 327 327 327 327 328 328 329 329 329 329 329 329
303 304 305 304 307 306 304 307 308 308 304 308 309 305 309 309 306 302 306 310 310 312 315 319 323 323 321 321 323 325 324 327 328 328 327 326 325 324 325 325 326 326 326
299 301 302 302 302 303 302 302 303 302 302 303 307 309 307 311 306 304 301 301 304 308 310 312 315 316 316 317 319 323 324 323 322 320 320 322 322 319 319 319 319 320 319
294 296 297 298 298 300 300 299 300 303 300 300 300 302 305 304 307 307 303 302 300 301 303 306 307 308 311 311 312 315 319 318 314 315 315 314 315 315 314 315 315 316 315
291 292 293 295 296 296 297 298 298 298 299 299 298 298 299 300 300 302 306 302 302 302 300 299 301 300 303 305 306 306 312 314 312 309 310 310 309 308 309 309 310 310 310
289 288 289 290 292 294 294 295 296 297 297 297 297 297 297 299 300 301 303 300 299 299 301 301 301 301 299 299 298 297 296 298 301 302 303 304 305 303 303 304 305 305 306
287 287 288 287 288 289 290 292 293 295 295 296 296 295 296 296 296 297 298 298 299 297 296 296 298 299 299 297 299 296 295 295 295 296 296 297 296 296 296 296 298 300 300
286 286 286 287 287 287 288 288 289 291 292 293 293 293 294 295 296 296 296 297 298 297 297 297 294 293 293 295 296 294 293 294 294 294 294 294 294 294 294 294 294 295 297
285 285 285 286 286 287 288 287 288 288 289 289 290 291 291 291 291 293 294 294 296 299 299 297 297 296 295 292 292 293 293 294 292 293 292 291 290 290 291 291 291 292 293
284 284 284 285 285 285 286 287 287 287 288 288 289 289 289 289 290 290 291 291 292 294 296 294 294 294 294 294 294 294 291 289 289 289 289 289 289 289 289 289 291 291 293
284 284 284 284 284 285 285 286 286 286 287 286 287 287 288 288 289 289 289 290 291 291 293 293 291 291 290 290 289 289 288 288 288 287 287 288 288 288 289 292 291 290 291
283 283 284 284 284 284 284 285 285 285 285 285 285 286 286 286 287 287 288 288 289 289 290 292 291 290 289 288 288 288 288 288 287 287 287 288 288 288 289 289 288 288 288
283 283 283 283 284 284 284 284 284 284 284 285 285 285 285 285 286 286 286 286 287 287 287 288 289 288 288 288 288 288 287 287 288 288 288 288 288 287 288 288 288 287 287
283 284 283 283 283 283 284 284 284 284 284 284 284 285 285 285 286 286 287 287 287 287 288 288 288 288 288 288 287 287 286 287 287 288 288 288 287 287 287 288 287 286 286
284 284 284 284 283 283 283 283 283 284 284 284 284 284 284 284 284 286 287 288 287 287 288 288 288 288 288 287 286 285 286 286 287 288 287 286 285 286 286 287 286 286 285
283 284 283 284 284 284 283 281 283 285 285 284 285 284 284 283 282 283 285 286 287 287 287 287 287 287 287 286 285 285 285 286 287 287 285 284 285 286 286 285 285 284 284
282 282 283 283 283 284 283 283 284 284 285 285 285 285 284 283 283 285 284 283 284 284 285 285 286 286 285 285 285 285 285 285 285 284 283 283 284 284 283 283 282 283 284
280 280 281 281 282 282 283 283 284 284 285 285 285 285 285 284 283 283 284 284 284 285 285 285 285 285 285 285 285 285 284 283 283 283 283 282 283 282 281 281 281 282 283
278 279 279 279 280 281 281 282 282 283 285 285 285 285 285 285 284 283 283 284 285 285 285 284 283 283 282 282 282 282 282 282 282 283 282 281 281 280 280 281 281 282 281
276 276 277 278 278 279 279 280 281 281 282 283 284 284 284 284 284 284 283 284 285 285 284 284 283 283 282 281 280 280 281 281 281 281 280 279 279 279 279 280 281 280 280
Wind_Speed
12 6 2 5 7 5 3 7 3 1 2 4 5 2 2 1 3 3 6 4 4 3 3 3 3 4 5 6 8 10 11 11 11 12 12 12 13 14 15 15 15 16 17
6 8 5 4 3 2 2 3 5 4 3 5 3 1 3 4 4 3 3 3 2 1 1 2 1 2 3 1 4 6 8 10 10 10 10 11 11 12 13 14 14 14 14
10 9 6 3 4 3 2 2 1 4 4 3 3 2 5 6 5 4 4 6 1 2 2 1 2 3 5 9 2 4 5 7 8 9 9 9 10 11 11 11 12 13 13
8 3 1 3 2 1 1 1 2 3 3 4 3 2 2 5 6 5 4 4 5 3 2 2 2 4 4 3 5 4 4 4 5 6 7 8 8 8 9 10 10 10 11
11 7 4 5 4 2 1 1 1 5 5 3 4 4 2 5 5 5 5 4 4 2 2 2 4 3 4 2 2 2 3 2 2 3 5 6 6 7 8 8 9 9 9
8 7 9 7 3 2 1 1 2 3 5 5 2 2 8 7 5 5 6 5 5 5 2 1 6 5 5 5 3 4 5 3 2 2 2 4 5 5 6 6 6 8 9
7 7 5 6 5 2 1 4 2 1 1 4 4 1 3 5 5 6 6 7 6 5 7 6 6 5 5 5 5 7 6 2 2 0 5 9 8 12 12 15 11 9 9
5 5 5 2 3 1 2 2 6 3 5 2 5 3 1 1 1 4 2 5 5 5 5 6 5 5 4 5 4 3 3 8 11 10 8 4 3 5 5 8 7 7 7
3 4 4 3 2 2 0 0 3 5 3 4 1 4 2 2 1 3 4 3 2 2 3 3 4 5 6 6 7 8 9 9 6 12 11 4 2 7 8 9 8 7 6
5 4 4 3 2 2 2 0 0 2 1 4 2 3 7 6 2 1 1 4 5 6 5 4 4 4 5 5 7 8 8 7 9 10 10 9 7 6 6 7 8 8 9
5 4 3 2 2 2 3 1 1 2 2 4 1 1 1 7 6 3 1 1 2 4 6 6 5 7 2 2 2 4 4 5 1 8 9 8 8 10 9 10 11 13 13
5 5 4 3 2 2 2 1 1 1 1 3 3 3 2 3 4 5 1 1 2 2 2 2 1 4 3 4 3 5 6 4 3 3 7 9 9 12 12 11 12 12 12
5 4 4 4 3 2 2 2 3 3 2 2 2 2 4 2 1 6 5 2 1 2 2 2 2 2 1 1 3 6 7 7 8 8 9 10 12 13 14 15 14 14 14
4 4 4 4 3 3 3 3 2 2 2 2 2 1 3 3 2 1 3 2 1 1 2 4 4 3 1 4 4 4 8 10 11 12 14 14 15 16 16 16 16 16 16
4 4 4 4 3 3 2 3 3 2 3 2 2 1 3 2 1 1 2 3 3 2 3 5 3 5 5 3 7 8 11 14 16 16 17 16 16 15 16 16 15 16 16
4 4 4 4 4 4 3 3 2 2 2 3 1 2 2 1 1 2 2 4 7 7 3 2 4 6 6 8 12 14 14 16 13 16 15 15 17 17 17 16 14 12 14
4 4 4 4 4 4 3 3 3 3 2 2 2 3 2 2 1 1 2 2 2 1 4 4 2 3 4 6 8 10 12 13 13 14 15 14 15 17 15 12 12 12 15
4 4 3 3 3 3 3 3 3 3 3 2 2 2 1 1 1 1 2 1 1 2 2 3 1 2 4 6 7 9 10 10 13 12 16 15 12 10 12 13 15 16 17
3 2 3 3 2 2 2 2 2 2 2 2 2 2 1 1 1 1 1 1 1 1 2 2 4 3 5 7 9 8 9 12 12 14 13 11 11 13 15 16 15 14 15
2 2 1 0 0 1 1 0 0 1 2 1 1 1 1 1 1 1 1 1 1 2 1 2 2 4 4 6 8 11 14 13 17 13 10 10 14 16 15 12 12 14 13
0 1 1 1 1 1 1 2 1 1 1 1 2 2 1 3 3 3 1 1 1 1 2 2 3 4 4 6 7 9 13 17 16 7 11 18 21 18 13 13 13 13 18
2 2 2 3 3 2 6 5 3 3 4 4 3 4 4 4 4 4 3 3 2 0 2 3 4 5 6 6 6 9 11 14 6 2 21 27 14 13 14 14 14 18 19
3 3 4 4 4 5 7 7 6 6 7 7 7 6 5 4 6 4 5 6 6 7 6 5 6 6 6 6 8 10 10 10 12 20 16 15 11 15 17 17 24 17 13
4 4 5 5 6 6 7 7 7 8 9 10 10 9 9 7 7 7 6 6 6 6 6 6 6 6 6 7 7 10 12 14 15 15 8 6 13 17 23 25 16 9 11
7 8 8 9 9 9 8 8 7 8 9 11 12 11 12 11 9 9 9 8 8 8 8 9 11 11 11 10 9 9 8 9 10 7 10 6 10 21 22 12 10 9 16
11 10 12 13 14 15 13 11 8 8 10 11 11 12 13 15 12 12 12 10 10 9 8 8 9 8 7 7 7 5 6 6 7 8 2 10 12 13 10 8 14 21 27
Wind_Direction
107 96 121 138 148 182 205 190 166 81 313 299 288 217 194 177 130 95 129 141 128 111 79 64 59 52 47 51 55 58 59 59 62 64 61 60 59 55 55 54 60 61 57
98 129 155 144 120 198 345 205 210 249 265 336 22 184 166 152 87 139 132 159 145 158 123 35 222 28 11 13 46 53 56 57 57 60 61 60 60 57 53 53 52 57 58
102 93 65 103 127 164 272 304 352 232 243 262 297 182 201 200 185 152 95 101 13 325 308 323 33 39 35 45 48 49 51 50 50 53 55 57 58 58 56 54 51 50 52
144 140 72 317 341 40 225 167 237 257 239 271 271 257 199 195 195 198 197 196 179 123 336 279 313 16 2 7 31 39 35 38 34 41 49 49 49 53 51 53 50 46 47
153 158 207 239 240 254 92 312 184 193 239 280 297 286 289 241 204 209 202 206 216 218 301 250 234 292 311 353 13 5 345 3 21 22 29 34 38 39 43 42 51 47 41
160 166 178 203 238 210 151 173 205 161 201 234 280 354 335 297 250 229 228 216 226 222 196 317 255 225 223 259 320 348 341 285 290 292 1 8 10 13 20 16 30 35 39
158 160 173 221 261 308 203 167 166 136 206 168 137 283 300 7 333 260 235 230 238 206 208 176 146 225 214 234 252 290 345 353 302 352 112 100 72 66 62 59 65 61 58
155 162 175 177 199 224 320 199 161 131 292 104 124 131 72 187 15 19 303 217 241 213 203 191 195 196 176 114 89 175 237 74 79 91 107 97 71 42 26 44 46 47 36
122 148 176 203 192 189 59 24 154 157 180 11 215 145 118 223 329 3 32 60 100 165 157 160 152 166 168 157 141 130 146 141 103 56 61 95 46 39 31 24 18 10 354
92 106 129 159 153 167 190 216 301 168 284 140 207 225 155 134 179 353 308 41 75 89 98 104 111 115 142 133 124 131 153 146 75 55 44 37 22 9 10 357 331 322 332
92 107 116 138 159 138 146 159 77 98 195 151 29 316 165 143 134 120 260 326 14 54 84 90 112 98 54 128 93 82 164 223 12 37 21 5 356 356 355 350 331 318 316
89 88 97 112 136 145 138 157 129 173 99 124 147 249 289 303 168 143 155 117 297 342 37 1 7 108 79 41 42 37 24 6 322 352 9 354 327 325 329 337 336 329 325
94 86 92 97 105 117 128 179 187 171 180 159 145 175 255 284 313 145 133 93 22 307 342 345 304 293 262 305 345 357 333 335 334 336 331 332 320 313 313 317 318 317 315
97 97 89 86 84 89 120 132 129 145 211 163 190 194 241 245 219 233 114 128 101 228 251 243 222 157 342 297 300 322 323 317 314 317 312 310 307 304 306 306 306 311 316
101 100 101 92 87 95 111 139 147 158 145 155 194 201 285 250 233 246 217 236 300 255 207 193 214 258 266 284 312 321 316 316 313 306 302 303 306 304 304 303 306 308 311
104 99 97 93 91 99 105 118 123 148 153 144 154 154 210 214 205 185 204 216 219 280 297 158 189 252 274 282 299 309 312 311 315 308 301 301 303 306 305 303 306 310 314
97 89 85 88 87 85 97 100 106 112 115 125 132 160 190 148 265 153 179 237 284 260 292 321 286 293 313 318 320 306 306 305 303 297 303 303 303 304 308 310 312 315 311
105 98 92 88 83 85 90 102 95 97 108 111 119 110 126 108 168 126 94 123 55 359 325 317 66 338 313 296 308 322 315 309 302 308 311 318 312 312 316 316 316 311 306
104 88 96 105 109 96 66 70 85 86 101 114 130 144 168 120 32 7 119 98 113 77 9 353 351 340 321 334 322 327 322 324 321 316 323 326 321 320 312 316 312 315 312
171 131 114 125 138 91 112 125 112 125 126 147 174 170 175 166 140 49 44 32 17 34 24 353 326 317 321 324 332 331 331 335 327 327 316 325 322 317 319 319 327 327 321
349 211 217 220 253 257 254 232 245 239 219 243 276 256 256 227 221 205 246 300 311 321 326 327 309 316 323 339 341 331 325 329 332 305 326 323 326 324 331 321 321 305 317
308 296 282 276 272 279 262 245 242 261 249 248 248 263 266 285 280 254 236 235 198 236 296 316 316 313 319 327 326 326 324 337 334 251 331 320 333 321 325 321 310 316 318
318 307 296 287 277 265 276 265 273 266 263 256 253 251 252 250 252 247 260 254 257 260 258 263 284 296 302 308 314 316 319 313 297 304 323 311 323 306 307 304 309 309 312
304 293 284 285 284 281 275 272 278 270 265 262 259 256 253 245 248 241 245 249 251 255 266 260 256 267 281 280 285 298 304 303 303 313 306 285 315 318 317 319 319 319 320
270 272 275 277 277 274 278 282 291 272 267 263 259 255 250 250 246 244 240 246 246 246 258 260 257 263 269 277 280 287 297 310 312 310 310 313 316 325 324 337 335 341 328
270 270 267 267 270 271 267 268 271 270 270 270 264 260 251 246 243 241 242 242 248 247 249 254 270 280 285 280 281 269 271 288 307 308 11 345 326 349 322 316 312 326 330